Regional Weather Roundup
Issued by NWS Sioux Falls, SD

Home | Current Version | Previous Version | Text Only | Print | Product List | Glossary Off
Versions: 1 2 3 4 5 6 7 8 9 10 11 12 13 14 15 16 17 18 19 20 21 22 23 24 25 26 27 28 29 30 31 32 33 34 35 36 37 38 39 40 41 42 43 44 45 46 47 48 49 50

387
ASUS43 KFSD 301010
RWRFSD

WEATHER ROUNDUP FOR SE SOUTH DAKOTA/SW MINNESOTA/NW IOWA
NATIONAL WEATHER SERVICE SIOUX FALLS SD
500 AM CDT MON MAY 30 2016

NOTE: "FAIR" INDICATES FEW OR NO CLOUDS BELOW 12,000 FEET WITH NO
SIGNIFICANT WEATHER AND OR OBSTRUCTIONS TO VISIBILITY.


SDZ038>040-050-052>070-301100-
SOUTHEAST SOUTH DAKOTA

CITY           SKY/WX    TMP DP  RH WIND       PRES   REMARKS
BROOKINGS      LGT RAIN  60  54  80 S8        30.02S
CHAMBERLAIN    LGT RAIN  63  60  88 SE12      29.98S
HURON          RAIN      61  56  83 SW26G35   29.99S
MADISON        CLOUDY    61  57  88 S8        30.04F
MITCHELL       CLOUDY    62  57  83 E3        29.99F
SIOUX FALLS    CLOUDY    63  55  75 E7        30.01F
WINNER         PTSUNNY   61  57  87 E10       29.97R
YANKTON        CLOUDY    63  55  77 SE6       29.96R
$$

MNZ071-072-080-081-089-090-097-098-301100-
SOUTHWEST MINNESOTA

CITY           SKY/WX    TMP DP  RH WIND       PRES   REMARKS
FAIRMONT       MOCLDY    55  52  88 CALM      30.00R
JACKSON        CLOUDY    63  48  59 SW3       30.03R
LUVERNE        CLOUDY    59  54  82 N3        30.07R
MARSHALL       CLOUDY    58  52  80 SW6       30.00R
MONTEVIDEO     CLOUDY    57  52  82 CALM      29.99F
PIPESTONE      CLOUDY    61  55  82 SW3       30.05R
REDWOOD FALLS  CLOUDY    57  50  77 CALM      29.98F
TRACY          CLOUDY    62  54  76 SW13      30.02R
WINDOM         CLOUDY    57  54  88 CALM      30.02R
WORTHINGTON    LGT RAIN  62  51  67 SW7       30.06R
$$

IAZ001>003-012>014-020>022-031-032-NEZ013-014-SDZ071-301100-
NORTHWEST IOWA

CITY           SKY/WX    TMP DP  RH WIND       PRES   REMARKS
CHEROKEE       CLOUDY    62  56  81 N10       30.03S
DENISON        MOCLDY    63  55  77 CALM      29.98R
ESTHERVILLE    CLOUDY    57  55  93 NW15      30.05R THUNDER
LE MARS        CLOUDY    64  54  68 NE7       30.02F
ORANGE CITY    CLOUDY    63  55  77 E7        30.02F
SHELDON        LGT RAIN  61  55  82 SE10      30.03F
SIOUX CITY     CLOUDY    66  54  65 NE12      29.99R
SPENCER        TSTM      61  50  67 NW13G26   30.08R
STORM LAKE     CLOUDY    63  52  67 CALM      30.02R
$$

ABBREVIATIONS USED IN REMARKS
   TC - TEMPERATURE IN CELSIUS
  WCI - WIND CHILL INDEX
   HX - HEAT INDEX
  VSB - VISIBILITY





USA.gov is the U.S. government's official web portal to all federal, state and local government web resources and services.